Location: Sewell
(39.7660°N, 75.1450°W)
Time: 03:21:37
(UTC-04:00)

ISS - Visible Passes

Search period start: 31 July 2015 00:00
Search period end: 10 August 2015 00:00
Orbit: 402 x 403 km, 51.6° (Epoch: 30 July)

Date Brightness Start Highest point End Pass type
(mag) Time Alt. Az. Time Alt. Az. Time Alt. Az.
31 Jul 0.3 01:36:54 10° N 01:36:54 10° N 01:37:24 10° NNE visible
31 Jul -0.6 03:11:33 10° NNW 03:14:05 20° NNE 03:16:37 10° ENE visible
31 Jul -3.4 04:47:32 10° WNW 04:50:46 63° SW 04:53:59 10° SE visible
31 Jul -3.4 21:26:00 10° SW 21:29:11 59° SE 21:32:25 10° ENE visible
31 Jul -0.7 23:03:16 10° WNW 23:05:51 21° NNW 23:08:25 10° NNE visible
01 Aug 0.0 02:21:59 13° NE 02:21:59 13° NE 02:22:45 10° NE visible
01 Aug -3.0 03:54:55 13° NW 03:57:42 64° NE 04:00:56 10° ESE visible
01 Aug -1.4 22:09:33 10° W 22:12:33 32° NNW 22:15:31 10° NE visible
01 Aug 0.1 23:48:27 10° NNW 23:49:45 12° N 23:51:02 10° NNE visible
02 Aug -1.7 04:42:07 19° S 04:42:07 19° S 04:43:31 10° S visible
02 Aug -2.6 21:16:03 10° WSW 21:19:14 57° NW 21:22:28 10° NE visible
02 Aug -0.1 22:54:19 10° NW 22:56:14 14° NNW 22:58:07 10° NNE visible
03 Aug -0.5 22:00:14 10° WNW 22:02:42 19° NNW 22:05:08 10° NNE visible
03 Aug 0.1 23:39:27 10° NNW 23:40:06 10° N 23:40:45 10° N visible
04 Aug -1.2 21:06:16 10° W 21:09:09 28° NNW 21:12:03 10° NE visible
04 Aug 0.0 22:45:15 10° NNW 22:46:24 11° N 22:47:32 10° NNE visible
05 Aug -0.2 21:50:54 10° NW 21:52:41 14° NNW 21:54:24 10° NNE visible
05 Aug 0.0 23:29:15 10° N 23:30:10 11° N 23:30:24 11° N visible
06 Aug -0.4 20:56:34 10° WNW 20:58:55 18° NNW 21:01:14 10° NNE visible
06 Aug 0.0 22:35:43 10° NNW 22:36:20 10° N 22:36:56 10° N visible
07 Aug -0.2 21:41:25 10° NNW 21:42:26 11° N 21:43:25 10° N visible
07 Aug -0.1 23:18:17 10° NNW 23:19:25 13° N 23:19:25 13° N visible
08 Aug -0.3 20:46:50 10° NW 20:48:29 13° NNW 20:50:05 10° NNE visible
08 Aug -0.3 22:24:57 10° NNW 22:25:59 11° N 22:27:02 10° NNE visible
09 Aug -0.2 21:31:19 10° N 21:31:57 10° N 21:32:33 10° NNE visible
09 Aug -0.3 23:06:59 10° NNW 23:08:11 16° N 23:08:11 16° N visible
